,,PressureMeas_1m,,PRMeasQMR101_1,,RHStat155_1m_1,,SRMeasQMS101R_1m,,TAStat155_1m_1,,GenWind_1,,GenWind_1,
2019-03-06, 07:00:07,VALID,917.757,VALID,0.0,VALID,88.688,VALID,87.171,VALID,18.607,VALID,127.0,VALID,0.0,
2019-03-06, 07:01:07,VALID,917.776,VALID,0.0,VALID,88.305,VALID,87.773,VALID,18.68,VALID,123.0,VALID,0.0,
2019-03-06, 07:02:07,VALID,917.801,VALID,0.0,VALID,88.041,VALID,88.024,VALID,18.733,VALID,115.0,VALID,0.0,
2019-03-06, 07:03:07,VALID,917.825,VALID,0.0,VALID,87.428,VALID,86.516,VALID,18.781,VALID,121.0,VALID,0.0,
2019-03-06, 07:04:07,VALID,917.841,VALID,0.0,VALID,87.416,VALID,85.186,VALID,18.817,VALID,121.0,VALID,0.0,
2019-03-06, 07:05:07,VALID,917.873,VALID,0.0,VALID,87.319,VALID,86.262,VALID,18.853,VALID,124.0,VALID,0.0,
2019-03-06, 07:06:07,VALID,917.877,VALID,0.0,VALID,87.306,VALID,88.643,VALID,18.883,VALID,129.0,VALID,0.0,
2019-03-06, 07:07:07,VALID,917.902,VALID,0.0,VALID,87.157,VALID,90.568,VALID,18.908,VALID,134.0,VALID,0.0,
2019-03-06, 07:08:07,VALID,917.925,VALID,0.0,VALID,87.071,VALID,91.553,VALID,18.942,VALID,120.0,VALID,0.0,
2019-03-06, 07:09:07,VALID,917.974,VALID,0.0,VALID,86.969,VALID,92.431,VALID,19.013,VALID,123.0,VALID,0.0,
2019-03-06, 07:10:07,VALID,918.008,VALID,0.0,VALID,86.984,VALID,94.016,VALID,19.077,VALID,110.0,VALID,0.0,
2019-03-06, 07:11:07,VALID,918.03,VALID,0.0,VALID,86.566,VALID,96.795,VALID,19.154,VALID,95.0,VALID,0.0,
2019-03-06, 07:12:07,VALID,918.057,VALID,0.0,VALID,86.78,VALID,100.424,VALID,19.211,VALID,68.0,VALID,0.0,
2019-03-06, 07:13:07,VALID,918.068,VALID,0.0,VALID,86.105,VALID,103.931,VALID,19.201,VALID,81.0,VALID,0.0,
2019-03-06, 07:14:07,VALID,918.047,VALID,0.0,VALID,85.571,VALID,107.627,VALID,19.219,VALID,109.0,VALID,0.0,
2019-03-06, 07:15:07,VALID,918.066,VALID,0.0,VALID,85.226,VALID,112.18,VALID,19.25,VALID,109.0,VALID,0.0,
2019-03-06, 07:16:07,VALID,918.055,VALID,0.0,VALID,85.324,VALID,116.645,VALID,19.272,VALID,108.0,VALID,0.0,
2019-03-06, 07:17:07,VALID,918.065,VALID,0.0,VALID,85.113,VALID,120.819,VALID,19.352,VALID,108.0,VALID,0.0,
2019-03-06, 07:18:07,VALID,918.09,VALID,0.0,VALID,85.479,VALID,125.108,VALID,19.462,VALID,98.0,VALID,0.0,
2019-03-06, 07:19:07,VALID,918.085,VALID,0.0,VALID,85.904,VALID,129.234,VALID,19.549,VALID,97.0,VALID,0.0,
2019-03-06, 07:20:07,VALID,918.116,VALID,0.0,VALID,85.677,VALID,132.505,VALID,19.65,VALID,97.0,VALID,0.0,
2019-03-06, 07:21:07,VALID,918.092,VALID,0.0,VALID,85.577,VALID,135.259,VALID,19.746,VALID,95.0,VALID,0.0,
2019-03-06, 07:22:07,VALID,918.102,VALID,0.0,VALID,85.156,VALID,138.204,VALID,19.843,VALID,96.0,VALID,0.0,
2019-03-06, 07:23:07,VALID,918.101,VALID,0.0,VALID,84.813,VALID,142.003,VALID,19.936,VALID,98.0,VALID,0.0,
2019-03-06, 07:24:07,VALID,918.117,VALID,0.0,VALID,83.762,VALID,145.427,VALID,20.022,VALID,93.0,VALID,0.0,
2019-03-06, 07:25:07,VALID,918.127,VALID,0.0,VALID,84.802,VALID,147.743,VALID,20.093,VALID,89.0,VALID,0.0,
2019-03-06, 07:26:07,VALID,918.137,VALID,0.0,VALID,84.0,VALID,151.276,VALID,20.15,VALID,91.0,VALID,0.0,
2019-03-06, 07:27:07,VALID,918.172,VALID,0.0,VALID,82.63,VALID,155.111,VALID,20.17,VALID,89.0,VALID,0.0,
2019-03-06, 07:28:07,VALID,918.188,VALID,0.0,VALID,82.541,VALID,158.692,VALID,20.227,VALID,92.0,VALID,0.0,
2019-03-06, 07:29:07,VALID,918.234,VALID,0.0,VALID,82.309,VALID,161.707,VALID,20.281,VALID,90.0,VALID,0.0,
2019-03-06, 07:30:07,VALID,918.245,VALID,0.0,VALID,83.596,VALID,164.647,VALID,20.39,VALID,81.0,VALID,0.0,
2019-03-06, 07:31:07,VALID,918.255,VALID,0.0,VALID,83.079,VALID,168.066,VALID,20.5,VALID,88.0,VALID,0.0,
2019-03-06, 07:32:07,VALID,918.281,VALID,0.0,VALID,82.696,VALID,171.122,VALID,20.605,VALID,107.0,VALID,0.0,
2019-03-06, 07:33:07,VALID,918.292,VALID,0.0,VALID,81.556,VALID,174.154,VALID,20.677,VALID,112.0,VALID,0.0,
2019-03-06, 07:34:07,VALID,918.303,VALID,0.0,VALID,82.783,VALID,177.563,VALID,20.738,VALID,116.0,VALID,0.0,
2019-03-06, 07:35:07,VALID,918.294,VALID,0.0,VALID,82.178,VALID,181.173,VALID,20.777,VALID,121.0,VALID,0.0,
2019-03-06, 07:36:07,VALID,918.313,VALID,0.0,VALID,81.782,VALID,184.904,VALID,20.804,VALID,125.0,VALID,0.0,
2019-03-06, 07:37:07,VALID,918.331,VALID,0.0,VALID,80.844,VALID,189.522,VALID,20.875,VALID,131.0,VALID,0.0,
2019-03-06, 07:38:07,VALID,918.376,VALID,0.0,VALID,81.491,VALID,196.56,VALID,20.959,VALID,130.0,VALID,0.0,
2019-03-06, 07:39:07,VALID,918.39,VALID,0.0,VALID,81.241,VALID,204.548,VALID,20.998,VALID,123.0,VALID,0.0,
2019-03-06, 07:40:07,VALID,918.416,VALID,0.0,VALID,80.895,VALID,210.438,VALID,21.004,VALID,118.0,VALID,0.0,
2019-03-06, 07:41:07,VALID,918.431,VALID,0.0,VALID,81.432,VALID,213.88,VALID,20.97,VALID,129.0,VALID,0.0,
2019-03-06, 07:42:07,VALID,918.431,VALID,0.0,VALID,81.644,VALID,214.502,VALID,21.014,VALID,121.0,VALID,0.0,
2019-03-06, 07:43:07,VALID,918.439,VALID,0.0,VALID,79.604,VALID,211.473,VALID,21.046,VALID,125.0,VALID,0.0,
2019-03-06, 07:44:07,VALID,918.45,VALID,0.0,VALID,78.67,VALID,208.395,VALID,21.079,VALID,127.0,VALID,0.0,
2019-03-06, 07:45:07,VALID,918.436,VALID,0.0,VALID,80.111,VALID,213.792,VALID,21.117,VALID,138.0,VALID,0.0,
2019-03-06, 07:46:07,VALID,918.445,VALID,0.0,VALID,80.251,VALID,215.065,VALID,21.177,VALID,129.0,VALID,0.0,
2019-03-06, 07:47:07,VALID,918.463,VALID,0.0,VALID,79.097,VALID,219.074,VALID,21.234,VALID,165.0,VALID,0.0,
2019-03-06, 07:48:07,VALID,918.476,VALID,0.0,VALID,79.175,VALID,225.705,VALID,21.307,VALID,124.0,VALID,0.0,
2019-03-06, 07:49:07,VALID,918.516,VALID,0.0,VALID,78.472,VALID,230.521,VALID,21.362,VALID,125.0,VALID,0.0,
2019-03-06, 07:50:07,VALID,918.534,VALID,0.0,VALID,78.648,VALID,237.739,VALID,21.422,INVALID,360.0,VALID,0.0,
2019-03-06, 07:51:07,VALID,918.555,VALID,0.0,VALID,78.314,VALID,241.284,VALID,21.497,INVALID,360.0,VALID,0.0,
2019-03-06, 07:52:07,VALID,918.545,VALID,0.0,VALID,77.724,VALID,246.393,VALID,21.558,INVALID,360.0,VALID,0.0,
2019-03-06, 07:53:07,VALID,918.551,VALID,0.0,VALID,77.82,VALID,249.646,VALID,21.614,INVALID,360.0,VALID,0.0,
2019-03-06, 07:54:07,VALID,918.556,VALID,0.0,VALID,77.411,VALID,252.852,VALID,21.665,INVALID,360.0,VALID,0.0,
2019-03-06, 07:55:07,VALID,918.546,VALID,0.0,VALID,77.358,VALID,251.012,VALID,21.679,INVALID,360.0,VALID,0.0,
2019-03-06, 07:56:07,VALID,918.548,VALID,0.0,VALID,77.572,VALID,234.18,VALID,21.704,INVALID,360.0,VALID,0.0,
2019-03-06, 07:57:07,VALID,918.552,VALID,0.0,VALID,78.238,VALID,227.099,VALID,21.755,INVALID,360.0,VALID,0.0,
2019-03-06, 07:58:07,VALID,918.561,VALID,0.0,VALID,77.799,VALID,229.994,VALID,21.753,INVALID,360.0,VALID,0.0,
2019-03-06, 07:59:07,VALID,918.565,VALID,0.0,VALID,77.965,VALID,249.29,VALID,21.764,INVALID,360.0,VALID,0.0,
2019-03-06, 08:00:07,VALID,918.572,VALID,0.0,VALID,78.251,VALID,278.344,VALID,21.799,INVALID,360.0,VALID,0.0,
2019-03-06, 08:01:07,VALID,918.592,VALID,0.0,VALID,78.315,VALID,282.752,VALID,21.883,INVALID,360.0,VALID,0.0,
2019-03-06, 08:02:07,VALID,918.61,VALID,0.0,VALID,78.438,VALID,279.621,VALID,21.977,INVALID,360.0,VALID,0.0,
2019-03-06, 08:03:07,VALID,918.621,VALID,0.0,VALID,77.226,VALID,272.647,VALID,21.969,INVALID,360.0,VALID,0.0,
2019-03-06, 08:04:07,VALID,918.616,VALID,0.0,VALID,79.023,VALID,272.265,VALID,21.993,INVALID,360.0,VALID,0.0,
2019-03-06, 08:05:07,VALID,918.63,VALID,0.0,VALID,79.257,VALID,277.596,VALID,22.066,INVALID,360.0,VALID,0.0,
2019-03-06, 08:06:06,VALID,918.653,VALID,0.0,VALID,79.192,VALID,283.025,VALID,22.099,INVALID,360.0,VALID,0.0,
2019-03-06, 08:07:06,VALID,918.647,VALID,0.0,VALID,78.077,VALID,299.504,VALID,22.178,INVALID,360.0,VALID,0.0,
2019-03-06, 08:08:06,VALID,918.657,VALID,0.0,VALID,77.908,VALID,315.2,VALID,22.182,INVALID,360.0,VALID,0.0,
2019-03-06, 08:09:06,VALID,918.666,VALID,0.0,VALID,77.696,VALID,326.071,VALID,22.235,INVALID,360.0,VALID,0.0,
2019-03-06, 08:10:06,VALID,918.665,VALID,0.0,VALID,77.871,VALID,327.229,VALID,22.296,INVALID,360.0,VALID,0.0,
2019-03-06, 08:11:06,VALID,918.682,VALID,0.0,VALID,77.406,VALID,335.616,VALID,22.379,INVALID,360.0,VALID,0.0,
2019-03-06, 08:12:06,VALID,918.686,VALID,0.0,VALID,77.423,VALID,349.276,VALID,22.337,INVALID,360.0,VALID,0.0,
2019-03-06, 08:13:06,VALID,918.71,VALID,0.0,VALID,77.354,VALID,356.636,VALID,22.312,INVALID,360.0,VALID,0.0,
2019-03-06, 08:14:06,VALID,918.696,VALID,0.0,VALID,78.276,VALID,362.152,VALID,22.487,INVALID,360.0,VALID,0.0,
2019-03-06, 08:15:06,VALID,918.733,VALID,0.0,VALID,78.034,VALID,368.402,VALID,22.627,INVALID,360.0,VALID,0.0,
2019-03-06, 08:16:06,VALID,918.736,VALID,0.0,VALID,77.08,VALID,367.616,VALID,22.686,INVALID,360.0,VALID,0.0,
2019-03-06, 08:17:06,VALID,918.759,VALID,0.0,VALID,76.87,VALID,357.773,VALID,22.743,INVALID,360.0,VALID,0.0,
2019-03-06, 08:18:06,VALID,918.784,VALID,0.0,VALID,75.444,VALID,375.322,VALID,22.902,INVALID,360.0,VALID,0.0,
2019-03-06, 08:19:06,VALID,918.793,VALID,0.0,VALID,75.521,VALID,382.934,VALID,23.084,INVALID,360.0,VALID,0.0,
2019-03-06, 08:20:06,VALID,918.807,VALID,0.0,VALID,74.995,VALID,388.936,VALID,23.214,INVALID,360.0,VALID,0.0,
2019-03-06, 08:21:06,VALID,918.807,VALID,0.0,VALID,73.709,VALID,392.826,VALID,23.23,INVALID,360.0,VALID,0.0,
2019-03-06, 08:22:06,VALID,918.844,VALID,0.0,VALID,74.394,VALID,394.195,VALID,23.113,VALID,126.0,VALID,0.0,
2019-03-06, 08:23:06,VALID,918.833,VALID,0.0,VALID,74.94,VALID,387.844,VALID,23.101,VALID,115.0,VALID,0.0,
2019-03-06, 08:24:06,VALID,918.828,VALID,0.0,VALID,75.45,VALID,394.086,VALID,23.34,VALID,122.0,VALID,0.0,
2019-03-06, 08:25:06,VALID,918.842,VALID,0.0,VALID,75.449,VALID,396.63,VALID,23.679,INVALID,360.0,VALID,0.0,
2019-03-06, 08:26:06,VALID,918.848,VALID,0.0,VALID,73.102,VALID,405.487,VALID,23.827,INVALID,360.0,VALID,0.0,
2019-03-06, 08:27:06,VALID,918.869,VALID,0.0,VALID,72.016,VALID,409.486,VALID,23.804,INVALID,360.0,VALID,0.0,
2019-03-06, 08:28:06,VALID,918.876,VALID,0.0,VALID,71.74,VALID,412.265,VALID,23.566,INVALID,360.0,VALID,0.0,
2019-03-06, 08:29:06,VALID,918.879,VALID,0.0,VALID,73.249,VALID,413.965,VALID,23.325,INVALID,360.0,VALID,0.0,
2019-03-06, 08:30:06,VALID,918.889,VALID,0.0,VALID,73.398,VALID,416.565,VALID,23.346,INVALID,360.0,VALID,0.0,
2019-03-06, 08:31:06,VALID,918.885,VALID,0.0,VALID,73.938,VALID,419.788,VALID,23.404,INVALID,360.0,VALID,0.0,
2019-03-06, 08:32:06,VALID,918.883,VALID,0.0,VALID,73.254,VALID,423.787,VALID,23.571,INVALID,360.0,VALID,0.0,
2019-03-06, 08:33:06,VALID,918.877,VALID,0.0,VALID,72.316,VALID,427.32,VALID,23.776,INVALID,360.0,VALID,0.0,
2019-03-06, 08:34:06,VALID,918.9,VALID,0.0,VALID,72.597,VALID,431.241,VALID,23.916,INVALID,360.0,VALID,0.0,
2019-03-06, 08:35:06,VALID,918.922,VALID,0.0,VALID,72.062,VALID,405.519,VALID,24.002,INVALID,360.0,VALID,0.0,
2019-03-06, 08:36:06,VALID,918.937,VALID,0.0,VALID,71.32,VALID,374.86,VALID,24.082,INVALID,360.0,VALID,0.0,
2019-03-06, 08:37:06,VALID,918.963,VALID,0.0,VALID,71.262,VALID,367.715,VALID,24.143,INVALID,360.0,VALID,0.0,
2019-03-06, 08:38:06,VALID,919.003,VALID,0.0,VALID,70.728,VALID,382.335,VALID,24.16,INVALID,360.0,VALID,0.0,
2019-03-06, 08:39:06,VALID,919.022,VALID,0.0,VALID,70.52,VALID,385.07,VALID,24.109,INVALID,360.0,VALID,0.0,
2019-03-06, 08:40:06,VALID,919.042,VALID,0.0,VALID,71.155,VALID,392.329,VALID,24.171,INVALID,360.0,VALID,0.0,
2019-03-06, 08:41:06,VALID,919.045,VALID,0.0,VALID,71.171,VALID,425.202,VALID,24.16,INVALID,360.0,VALID,0.0,
2019-03-06, 08:42:06,VALID,919.046,VALID,0.0,VALID,71.071,VALID,401.892,VALID,24.197,INVALID,360.0,VALID,0.0,
2019-03-06, 08:43:06,VALID,919.061,VALID,0.0,VALID,70.921,VALID,395.355,VALID,24.307,INVALID,360.0,VALID,0.0,
2019-03-06, 08:44:06,VALID,919.059,VALID,0.0,VALID,70.62,VALID,398.669,VALID,24.408,INVALID,360.0,VALID,0.0,
2019-03-06, 08:45:06,VALID,919.093,VALID,0.0,VALID,70.61,VALID,358.527,VALID,24.506,INVALID,360.0,VALID,0.0,
2019-03-06, 08:46:06,VALID,919.107,VALID,0.0,VALID,70.735,VALID,344.694,VALID,24.469,INVALID,360.0,VALID,0.0,
2019-03-06, 08:47:06,VALID,919.115,VALID,0.0,VALID,70.89,VALID,391.96,VALID,24.459,INVALID,360.0,VALID,0.0,
2019-03-06, 08:48:06,VALID,919.139,VALID,0.0,VALID,70.893,VALID,361.512,VALID,24.445,INVALID,360.0,VALID,0.0,
2019-03-06, 08:49:06,VALID,919.14,VALID,0.0,VALID,71.289,VALID,385.586,VALID,24.248,INVALID,360.0,VALID,0.0,
2019-03-06, 08:50:06,VALID,919.138,VALID,0.0,VALID,71.564,VALID,373.191,VALID,24.312,INVALID,360.0,VALID,0.0,
2019-03-06, 08:51:06,VALID,919.123,VALID,0.0,VALID,71.348,VALID,411.503,VALID,24.236,INVALID,360.0,VALID,0.0,
2019-03-06, 08:52:06,VALID,919.13,VALID,0.0,VALID,71.578,VALID,390.14,VALID,24.033,INVALID,360.0,VALID,0.0,
2019-03-06, 08:53:06,VALID,919.127,VALID,0.0,VALID,72.659,VALID,400.462,VALID,24.123,INVALID,360.0,VALID,0.0,
2019-03-06, 08:54:06,VALID,919.155,VALID,0.0,VALID,73.503,VALID,389.848,VALID,24.362,INVALID,360.0,VALID,0.0,
2019-03-06, 08:55:06,VALID,919.156,VALID,0.0,VALID,71.857,VALID,386.232,VALID,24.405,INVALID,360.0,VALID,0.0,
2019-03-06, 08:56:06,VALID,919.174,VALID,0.0,VALID,71.643,VALID,437.829,VALID,24.26,INVALID,360.0,VALID,0.0,
2019-03-06, 08:57:06,VALID,919.182,VALID,0.0,VALID,71.477,VALID,436.779,VALID,24.247,INVALID,360.0,VALID,0.0,
2019-03-06, 08:58:06,VALID,919.2,VALID,0.0,VALID,72.462,VALID,405.805,VALID,24.466,INVALID,360.0,VALID,0.0,
2019-03-06, 08:59:06,VALID,919.196,VALID,0.0,VALID,71.985,VALID,424.777,VALID,24.532,INVALID,360.0,VALID,0.0,
2019-03-06, 09:00:06,VALID,919.22,VALID,0.0,VALID,71.788,VALID,427.936,VALID,24.569,INVALID,360.0,VALID,0.0,
2019-03-06, 09:01:06,VALID,919.24,VALID,0.0,VALID,71.41,VALID,472.532,VALID,24.443,INVALID,360.0,VALID,0.0,
2019-03-06, 09:02:06,VALID,919.254,VALID,0.0,VALID,73.149,VALID,524.815,VALID,24.432,INVALID,360.0,VALID,0.0,
2019-03-06, 09:03:06,VALID,919.277,VALID,0.0,VALID,71.713,VALID,543.82,VALID,24.624,INVALID,360.0,VALID,0.0,
2019-03-06, 09:04:06,VALID,919.292,VALID,0.0,VALID,71.678,VALID,548.174,VALID,24.857,INVALID,360.0,VALID,0.0,
2019-03-06, 09:05:06,VALID,919.298,VALID,0.0,VALID,70.148,VALID,547.268,VALID,25.065,INVALID,360.0,VALID,0.0,
2019-03-06, 09:06:06,VALID,919.322,VALID,0.0,VALID,68.722,VALID,548.991,VALID,25.121,INVALID,360.0,VALID,0.0,
2019-03-06, 09:07:06,VALID,919.328,VALID,0.0,VALID,70.102,VALID,550.037,VALID,25.03,INVALID,360.0,VALID,0.0,
2019-03-06, 09:08:06,VALID,919.308,VALID,0.0,VALID,69.577,VALID,548.883,VALID,24.987,INVALID,360.0,VALID,0.0,
2019-03-06, 09:09:06,VALID,919.307,VALID,0.0,VALID,70.719,VALID,552.442,VALID,25.067,INVALID,360.0,VALID,0.0,
2019-03-06, 09:10:06,VALID,919.292,VALID,0.0,VALID,69.822,VALID,557.346,VALID,25.267,INVALID,360.0,VALID,0.0,
2019-03-06, 09:11:06,VALID,919.291,VALID,0.0,VALID,69.369,VALID,558.324,VALID,25.309,VALID,47.0,VALID,0.0,
2019-03-06, 09:12:06,VALID,919.286,VALID,0.0,VALID,69.157,VALID,558.749,VALID,25.196,INVALID,360.0,VALID,0.0,
2019-03-06, 09:13:06,VALID,919.287,VALID,0.0,VALID,69.381,VALID,559.346,VALID,25.319,VALID,46.0,VALID,0.0,
2019-03-06, 09:14:06,VALID,919.279,VALID,0.0,VALID,69.559,VALID,563.386,VALID,25.485,INVALID,360.0,VALID,0.0,
2019-03-06, 09:15:06,VALID,919.288,VALID,0.0,VALID,67.667,VALID,566.04,VALID,25.723,INVALID,360.0,VALID,0.0,
2019-03-06, 09:16:06,VALID,919.283,VALID,0.0,VALID,66.895,VALID,566.94,VALID,25.637,INVALID,360.0,VALID,0.0,
2019-03-06, 09:17:06,VALID,919.299,VALID,0.0,VALID,67.807,VALID,569.686,VALID,25.525,INVALID,360.0,VALID,0.0,
2019-03-06, 09:18:06,VALID,919.293,VALID,0.0,VALID,67.107,VALID,570.218,VALID,25.599,INVALID,360.0,VALID,0.0,
2019-03-06, 09:19:06,VALID,919.301,VALID,0.0,VALID,67.245,VALID,572.255,VALID,25.503,INVALID,360.0,VALID,0.0,
2019-03-06, 09:20:06,VALID,919.311,VALID,0.0,VALID,68.964,VALID,574.826,VALID,25.483,INVALID,360.0,VALID,0.0,
2019-03-06, 09:21:06,VALID,919.302,VALID,0.0,VALID,70.404,VALID,577.285,VALID,25.679,INVALID,360.0,VALID,0.0,
2019-03-06, 09:22:06,VALID,919.295,VALID,0.0,VALID,67.531,VALID,579.502,VALID,25.83,INVALID,360.0,VALID,0.0,
2019-03-06, 09:23:06,VALID,919.29,VALID,0.0,VALID,67.317,VALID,581.882,VALID,25.736,INVALID,360.0,VALID,0.0,
2019-03-06, 09:24:06,VALID,919.309,VALID,0.0,VALID,66.641,VALID,585.603,VALID,25.801,INVALID,360.0,VALID,0.0,
2019-03-06, 09:25:06,VALID,919.317,VALID,0.0,VALID,66.895,VALID,586.829,VALID,26.002,VALID,48.0,VALID,0.985,
2019-03-06, 09:26:06,VALID,919.339,VALID,0.0,VALID,66.098,VALID,590.175,VALID,26.014,VALID,46.0,VALID,2.275,
2019-03-06, 09:27:06,VALID,919.333,VALID,0.0,VALID,67.485,VALID,589.703,VALID,25.762,VALID,48.0,VALID,1.824,
2019-03-06, 09:28:06,VALID,919.33,VALID,0.0,VALID,67.563,VALID,594.211,VALID,25.814,VALID,49.0,VALID,1.295,
2019-03-06, 09:29:06,VALID,919.349,VALID,0.0,VALID,66.316,VALID,597.942,VALID,26.025,INVALID,360.0,VALID,0.12,
2019-03-06, 09:30:06,VALID,919.366,VALID,0.0,VALID,66.752,VALID,601.172,VALID,25.987,VALID,44.0,VALID,1.19,
2019-03-06, 09:31:06,VALID,919.348,VALID,0.0,VALID,67.19,VALID,603.964,VALID,25.977,VALID,45.0,VALID,1.305,
2019-03-06, 09:32:06,VALID,919.358,VALID,0.0,VALID,66.309,VALID,607.586,VALID,26.062,VALID,46.0,VALID,1.576,
2019-03-06, 09:33:06,VALID,919.354,VALID,0.0,VALID,66.513,VALID,609.725,VALID,26.153,VALID,43.0,VALID,1.075,
2019-03-06, 09:34:06,VALID,919.347,VALID,0.0,VALID,65.843,VALID,613.887,VALID,26.2,VALID,37.0,VALID,0.943,
2019-03-06, 09:35:06,VALID,919.356,VALID,0.0,VALID,66.049,VALID,616.509,VALID,26.111,VALID,43.0,VALID,2.279,
2019-03-06, 09:36:06,VALID,919.351,VALID,0.0,VALID,66.298,VALID,617.792,VALID,25.978,VALID,46.0,VALID,2.489,
2019-03-06, 09:37:06,VALID,919.34,VALID,0.0,VALID,64.816,VALID,621.7,VALID,25.85,VALID,43.0,VALID,1.316,
2019-03-06, 09:38:06,VALID,919.343,VALID,0.0,VALID,66.043,VALID,625.581,VALID,25.812,VALID,45.0,VALID,1.74,
2019-03-06, 09:39:06,VALID,919.313,VALID,0.0,VALID,65.775,VALID,629.754,VALID,25.955,INVALID,360.0,VALID,0.357,
2019-03-06, 09:40:06,VALID,919.327,VALID,0.0,VALID,64.273,VALID,632.494,VALID,26.047,INVALID,360.0,VALID,0.0,
2019-03-06, 09:41:06,VALID,919.314,VALID,0.0,VALID,66.597,VALID,629.538,VALID,26.196,INVALID,360.0,VALID,0.0,
2019-03-06, 09:42:06,VALID,919.308,VALID,0.0,VALID,67.1,VALID,631.125,VALID,26.196,INVALID,360.0,VALID,0.0,
2019-03-06, 09:43:06,VALID,919.323,VALID,0.0,VALID,64.438,VALID,637.503,VALID,26.119,INVALID,360.0,VALID,0.0,
2019-03-06, 09:44:06,VALID,919.28,VALID,0.0,VALID,65.344,VALID,641.014,VALID,26.105,INVALID,360.0,VALID,0.0,
2019-03-06, 09:45:06,VALID,919.298,VALID,0.0,VALID,68.01,VALID,646.507,VALID,26.501,INVALID,360.0,VALID,0.0,
2019-03-06, 09:46:06,VALID,919.301,VALID,0.0,VALID,64.057,VALID,647.305,VALID,26.718,INVALID,360.0,VALID,0.0,
2019-03-06, 09:47:06,VALID,919.289,VALID,0.0,VALID,66.781,VALID,650.324,VALID,26.897,VALID,59.0,VALID,0.0,
2019-03-06, 09:48:06,VALID,919.288,VALID,0.0,VALID,62.074,VALID,655.93,VALID,27.024,VALID,25.0,VALID,0.0,
2019-03-06, 09:49:06,VALID,919.287,VALID,0.0,VALID,63.396,VALID,656.426,VALID,27.005,VALID,34.0,VALID,0.0,
2019-03-06, 09:50:06,VALID,919.288,VALID,0.0,VALID,67.019,VALID,659.386,VALID,26.997,VALID,55.0,VALID,0.0,
2019-03-06, 09:51:06,VALID,919.28,VALID,0.0,VALID,64.657,VALID,664.016,VALID,27.345,VALID,47.0,VALID,0.0,
2019-03-06, 09:52:06,VALID,919.291,VALID,0.0,VALID,63.161,VALID,665.707,VALID,27.439,VALID,42.0,VALID,0.0,
2019-03-06, 09:53:06,VALID,919.267,VALID,0.0,VALID,61.479,VALID,669.358,VALID,27.167,VALID,76.0,VALID,0.0,
2019-03-06, 09:54:06,VALID,919.276,VALID,0.0,VALID,63.241,VALID,676.01,VALID,26.745,VALID,74.0,VALID,0.0,
2019-03-06, 09:55:06,VALID,919.266,VALID,0.0,VALID,63.284,VALID,682.711,VALID,26.516,VALID,100.0,VALID,0.0,
2019-03-06, 09:56:06,VALID,919.252,VALID,0.0,VALID,64.22,VALID,684.293,VALID,26.583,VALID,56.0,VALID,0.0,
2019-03-06, 09:57:06,VALID,919.259,VALID,0.0,VALID,64.217,VALID,680.481,VALID,26.782,VALID,56.0,VALID,0.0,
2019-03-06, 09:58:06,VALID,919.234,VALID,0.0,VALID,62.975,VALID,679.591,VALID,26.641,VALID,16.0,VALID,0.0,
2019-03-06, 09:59:06,VALID,919.26,VALID,0.0,VALID,64.43,VALID,682.614,VALID,26.455,VALID,34.0,VALID,0.0,
2019-03-06, 10:00:06,VALID,919.259,VALID,0.0,VALID,63.784,VALID,684.882,VALID,26.412,VALID,88.0,VALID,0.0,
2019-03-06, 10:01:06,VALID,919.269,VALID,0.0,VALID,63.441,VALID,686.49,VALID,26.096,VALID,56.0,VALID,0.0,
2019-03-06, 10:02:06,VALID,919.266,VALID,0.0,VALID,64.547,VALID,690.076,VALID,25.964,VALID,69.0,VALID,0.0,
2019-03-06, 10:03:06,VALID,919.259,VALID,0.0,VALID,64.648,VALID,694.802,VALID,26.027,VALID,114.0,VALID,0.0,
2019-03-06, 10:04:06,VALID,919.26,VALID,0.0,VALID,63.789,VALID,701.827,VALID,26.143,VALID,82.0,VALID,0.0,
2019-03-06, 10:05:06,VALID,919.236,VALID,0.0,VALID,66.047,VALID,704.189,VALID,26.295,VALID,75.0,VALID,0.0,
2019-03-06, 10:06:06,VALID,919.228,VALID,0.0,VALID,65.883,VALID,705.918,VALID,26.699,VALID,58.0,VALID,0.0,
2019-03-06, 10:07:06,VALID,919.233,VALID,0.0,VALID,65.719,VALID,708.034,VALID,27.087,VALID,124.0,VALID,0.0,
2019-03-06, 10:08:06,VALID,919.231,VALID,0.0,VALID,62.923,VALID,708.175,VALID,27.396,VALID,97.0,VALID,0.0,
2019-03-06, 10:09:06,VALID,919.234,VALID,0.0,VALID,61.389,VALID,711.409,VALID,27.346,VALID,93.0,VALID,0.0,
2019-03-06, 10:10:06,VALID,919.239,VALID,0.0,VALID,64.201,VALID,717.769,VALID,26.933,VALID,81.0,VALID,0.491,
2019-03-06, 10:11:06,VALID,919.243,VALID,0.0,VALID,62.93,VALID,711.503,VALID,26.917,VALID,102.0,VALID,1.357,
2019-03-06, 10:12:06,VALID,919.23,VALID,0.0,VALID,61.032,VALID,665.762,VALID,27.071,VALID,109.0,VALID,0.547,
2019-03-06, 10:13:06,VALID,919.231,VALID,0.0,VALID,62.279,VALID,631.886,VALID,27.361,VALID,83.0,VALID,0.162,
2019-03-06, 10:14:06,VALID,919.233,VALID,0.0,VALID,61.867,VALID,691.114,VALID,27.711,VALID,90.0,VALID,1.113,
2019-03-06, 10:15:06,VALID,919.215,VALID,0.0,VALID,61.333,VALID,677.834,VALID,27.614,VALID,107.0,VALID,1.602,
2019-03-06, 10:16:06,VALID,919.181,VALID,0.0,VALID,61.08,VALID,683.936,VALID,27.433,VALID,88.0,VALID,0.956,
2019-03-06, 10:17:06,VALID,919.186,VALID,0.0,VALID,63.077,VALID,714.771,VALID,27.248,VALID,82.0,VALID,1.602,
2019-03-06, 10:18:06,VALID,919.175,VALID,0.0,VALID,62.912,VALID,725.544,VALID,27.051,VALID,127.0,VALID,1.477,
2019-03-06, 10:19:06,VALID,919.183,VALID,0.0,VALID,62.159,VALID,726.35,VALID,27.074,VALID,107.0,VALID,1.842,
2019-03-06, 10:20:06,VALID,919.191,VALID,0.0,VALID,62.745,VALID,732.546,VALID,26.875,VALID,94.0,VALID,2.029,
2019-03-06, 10:21:06,VALID,919.198,VALID,0.0,VALID,65.721,VALID,747.306,VALID,26.791,VALID,91.0,VALID,1.696,
2019-03-06, 10:22:06,VALID,919.199,VALID,0.0,VALID,63.113,VALID,751.487,VALID,26.947,VALID,102.0,VALID,1.427,
2019-03-06, 10:23:06,VALID,919.217,VALID,0.0,VALID,62.568,VALID,757.455,VALID,27.091,VALID,38.0,VALID,1.411,
2019-03-06, 10:24:06,VALID,919.218,VALID,0.0,VALID,61.77,VALID,755.221,VALID,26.987,VALID,41.0,VALID,0.0,
2019-03-06, 10:25:06,VALID,919.2,VALID,0.0,VALID,62.95,VALID,742.59,VALID,27.094,VALID,29.0,VALID,0.0,
2019-03-06, 10:26:06,VALID,919.213,VALID,0.0,VALID,62.468,VALID,745.054,VALID,27.384,VALID,99.0,VALID,0.0,
2019-03-06, 10:27:06,VALID,919.211,VALID,0.0,VALID,61.298,VALID,758.143,VALID,27.385,VALID,118.0,VALID,0.0,
2019-03-06, 10:28:06,VALID,919.23,VALID,0.0,VALID,63.251,VALID,763.335,VALID,27.369,VALID,89.0,VALID,0.0,
2019-03-06, 10:29:06,VALID,919.242,VALID,0.0,VALID,61.53,VALID,769.923,VALID,27.214,VALID,109.0,VALID,0.0,
2019-03-06, 10:30:06,VALID,919.252,VALID,0.0,VALID,62.74,VALID,772.002,VALID,27.003,VALID,105.0,VALID,0.0,
2019-03-06, 10:31:06,VALID,919.257,VALID,0.0,VALID,61.257,VALID,778.625,VALID,27.063,VALID,117.0,VALID,0.0,
2019-03-06, 10:32:06,VALID,919.262,VALID,0.0,VALID,61.934,VALID,783.216,VALID,27.347,VALID,168.0,VALID,0.0,
2019-03-06, 10:33:06,VALID,919.263,VALID,0.0,VALID,61.537,VALID,785.058,VALID,27.519,VALID,165.0,VALID,0.0,
2019-03-06, 10:34:06,VALID,919.253,VALID,0.0,VALID,61.713,VALID,787.46,VALID,27.509,VALID,119.0,VALID,0.0,
2019-03-06, 10:35:06,VALID,919.252,VALID,0.0,VALID,60.355,VALID,786.674,VALID,27.711,VALID,153.0,VALID,0.0,
2019-03-06, 10:36:06,VALID,919.27,VALID,0.0,VALID,62.086,VALID,791.289,VALID,27.933,VALID,100.0,VALID,0.0,
2019-03-06, 10:37:06,VALID,919.264,VALID,0.0,VALID,60.363,VALID,791.817,VALID,27.912,VALID,86.0,VALID,0.0,